04-11-2023, 00:00:06,    203,    0.0,    4.6,   0.00,   0.00,  983.0,    0.5, -999.0
04-11-2023, 00:00:16,    203,    0.0,    4.6,   0.00,   0.00,  983.1,    0.3, -999.0
04-11-2023, 00:00:26,    203,    0.0,    4.6,   0.00,   0.00,  983.1,    0.4, -999.0
04-11-2023, 00:00:36,    203,    0.0,    4.6,   0.00,   0.00,  983.1,    0.7, -999.0
04-11-2023, 00:00:46,    204,    0.0,    4.6,   0.00,   0.00,  983.0,    0.5, -999.0
04-11-2023, 00:00:56,    203,    0.0,    4.6,   0.00,   0.00,  983.1,    0.4, -999.0
04-11-2023, 00:01:06,    203,    0.0,    4.6,   0.00,   0.00,  983.1,    0.3, -999.0
04-11-2023, 00:01:16,    203,    0.0,    4.6,   0.00,   0.00,  983.1,    0.2, -999.0
04-11-2023, 00:01:26,    203,    0.0,    4.5,   0.00,   0.00,  983.1,    0.4, -999.0
04-11-2023, 00:01:36,    203,    0.0,    4.5,   0.00,   0.00,  983.1,    0.5, -999.0
04-11-2023, 00:01:46,    204,    0.0,    4.6,   0.00,   0.00,  983.1,    0.5, -999.0
04-11-2023, 00:01:56,    203,    0.0,    4.6,   0.00,   0.00,  983.1,    0.4, -999.0
04-11-2023, 00:02:06,    204,    0.0,    4.6,   0.00,   0.00,  983.1,    0.5, -999.0
04-11-2023, 00:02:16,    203,    0.0,    4.5,   0.00,   0.00,  983.1,    0.2, -999.0
04-11-2023, 00:02:26,    203,    0.0,    4.5,   0.00,   0.00,  983.1,    0.4, -999.0
04-11-2023, 00:02:36,    203,    0.0,    4.6,   0.00,   0.00,  983.1,    0.3, -999.0
04-11-2023, 00:02:46,    203,    0.0,    4.5,   0.00,   0.00,  983.1,    0.4, -999.0
04-11-2023, 00:02:55,    195,    0.8,    4.6,   0.00,   0.00,  983.2,    0.5, -999.0
04-11-2023, 00:03:06,    195,    0.5,    4.6,   0.00,   0.00,  983.2,    0.6, -999.0
04-11-2023, 00:03:16,    194,    0.0,    4.5,   0.00,   0.00,  983.1,    0.5, -999.0
04-11-2023, 00:03:25,    194,    0.0,    4.5,   0.00,   0.00,  983.1,    0.4, -999.0
04-11-2023, 00:03:35,    195,    0.1,    4.5,   0.00,   0.00,  983.1,    0.5, -999.0
04-11-2023, 00:03:46,    194,    0.3,    4.6,   0.00,   0.00,  983.2,    0.5, -999.0
04-11-2023, 00:03:56,    194,    0.0,    4.5,   0.00,   0.00,  983.1,    0.4, -999.0
04-11-2023, 00:04:05,    195,    0.0,    4.5,   0.00,   0.00,  983.1,    0.4, -999.0
04-11-2023, 00:04:15,    194,    0.0,    4.5,   0.00,   0.00,  983.1,    0.4, -999.0
04-11-2023, 00:04:26,    194,    0.0,    4.5,   0.00,   0.00,  983.1,    0.5, -999.0
04-11-2023, 00:04:35,    194,    0.0,    4.5,   0.00,   0.00,  983.1,    0.4, -999.0
04-11-2023, 00:04:45,    194,    0.0,    4.5,   0.00,   0.00,  983.1,    0.5, -999.0
04-11-2023, 00:04:55,    195,    0.0,    4.5,   0.00,   0.00,  983.0,    0.3, -999.0
04-11-2023, 00:05:06,    194,    0.1,    4.5,   0.00,   0.00,  983.1,    0.4, -999.0
04-11-2023, 00:05:15,    195,    0.2,    4.6,   0.00,   0.00,  983.1,    0.5, -999.0
04-11-2023, 00:05:25,    194,    0.0,    4.5,   0.00,   0.00,  983.1,    0.5, -999.0
04-11-2023, 00:05:35,    194,    0.0,    4.5,   0.00,   0.00,  983.1,    0.3, -999.0
04-11-2023, 00:05:45,    194,    0.0,    4.5,   0.00,   0.00,  983.0,    0.4, -999.0
04-11-2023, 00:05:55,    194,    0.0,    4.5,   0.00,   0.00,  983.0,    0.3, -999.0
04-11-2023, 00:06:05,    194,    0.0,    4.5,   0.00,   0.00,  983.0,    0.3, -999.0
04-11-2023, 00:06:15,    194,    0.0,    4.5,   0.00,   0.00,  983.0,    0.4, -999.0
04-11-2023, 00:06:25,    194,    0.0,    4.5,   0.00,   0.00,  983.0,    0.3, -999.0
04-11-2023, 00:06:35,    194,    0.0,    4.5,   0.00,   0.00,  983.0,    0.4, -999.0
04-11-2023, 00:06:45,    193,    0.1,    4.5,   0.00,   0.00,  983.0,    0.3, -999.0
04-11-2023, 00:06:55,    193,    0.7,    4.6,   0.00,   0.00,  983.1,    0.6, -999.0
04-11-2023, 00:07:05,    194,    0.0,    4.5,   0.00,   0.00,  983.0,    0.5, -999.0
04-11-2023, 00:07:15,    193,    0.5,    4.6,   0.00,   0.00,  983.1,    0.5, -999.0
04-11-2023, 00:07:25,    193,    0.3,    4.6,   0.00,   0.00,  983.1,    0.6, -999.0
04-11-2023, 00:07:35,    193,    0.2,    4.6,   0.00,   0.00,  983.1,    0.4, -999.0
04-11-2023, 00:07:45,    194,    0.0,    4.5,   0.00,   0.00,  983.0,    0.4, -999.0
04-11-2023, 00:07:55,    193,    0.0,    4.5,   0.00,   0.00,  983.0,    0.5, -999.0
04-11-2023, 00:08:05,    193,    0.2,    4.6,   0.00,   0.00,  983.0,    0.5, -999.0
04-11-2023, 00:08:15,    166,    1.3,    4.6,   0.00,   0.00,  983.1,    0.6, -999.0
04-11-2023, 00:08:25,    166,    0.5,    4.6,   0.00,   0.00,  983.1,    0.2, -999.0
04-11-2023, 00:08:35,    166,    0.0,    4.6,   0.00,   0.00,  983.0,    0.6, -999.0
04-11-2023, 00:08:45,    166,    0.0,    4.6,   0.00,   0.00,  983.0,    0.6, -999.0
04-11-2023, 00:08:55,    165,    0.4,    4.6,   0.00,   0.00,  983.1,    0.5, -999.0
04-11-2023, 00:09:05,    165,    0.6,    4.6,   0.00,   0.00,  983.1,    0.4, -999.0
04-11-2023, 00:09:15,    165,    0.3,    4.6,   0.00,   0.00,  983.1,    0.0, -999.0
04-11-2023, 00:09:25,    164,    0.2,    4.6,   0.00,   0.00,  983.1,    0.2, -999.0
04-11-2023, 00:09:35,    164,    0.0,    4.5,   0.00,   0.00,  983.0,    0.4, -999.0
04-11-2023, 00:09:45,    155,    1.0,    4.5,   0.00,   0.00,  983.1,    0.4, -999.0
04-11-2023, 00:09:55,    154,    1.1,    4.6,   0.00,   0.00,  983.1,    1.0, -999.0
04-11-2023, 00:10:05,    154,    0.1,    4.6,   0.00,   0.00,  983.0,    0.6, -999.0
04-11-2023, 00:10:15,    154,    0.8,    4.6,   0.00,   0.00,  983.1,    0.5, -999.0
04-11-2023, 00:10:25,    153,    0.4,    4.6,   0.00,   0.00,  983.1,    0.7, -999.0
04-11-2023, 00:10:35,    153,    0.1,    4.6,   0.00,   0.00,  983.0,    0.4, -999.0
04-11-2023, 00:10:44,    153,    0.0,    4.5,   0.00,   0.00,  982.9,    0.6, -999.0
04-11-2023, 00:10:55,    153,    0.0,    4.6,   0.00,   0.00,  982.9,    0.5, -999.0
04-11-2023, 00:11:05,    153,    0.0,    4.5,   0.00,   0.00,  982.9,    0.5, -999.0
04-11-2023, 00:11:15,    153,    0.0,    4.7,   0.00,   0.00,  982.9,    0.5, -999.0
04-11-2023, 00:11:24,    153,    0.0,    4.5,   0.00,   0.00,  982.9,    0.3, -999.0
04-11-2023, 00:11:35,    153,    0.4,    4.6,   0.00,   0.00,  983.0,    0.4, -999.0
04-11-2023, 00:11:45,    153,    0.0,    4.6,   0.00,   0.00,  982.9,    0.5, -999.0
04-11-2023, 00:11:54,    153,    0.0,    4.6,   0.00,   0.00,  982.9,    0.5, -999.0
04-11-2023, 00:12:04,    153,    0.0,    4.5,   0.00,   0.00,  982.9,    0.3, -999.0
04-11-2023, 00:12:15,    153,    0.0,    4.6,   0.00,   0.00,  982.9,    0.5, -999.0
04-11-2023, 00:12:24,    153,    0.0,    4.5,   0.00,   0.00,  983.0,    0.6, -999.0
04-11-2023, 00:12:34,    148,    0.8,    4.6,   0.00,   0.00,  983.0,    0.4, -999.0
04-11-2023, 00:12:44,    158,    1.1,    4.7,   0.00,   0.00,  983.0,    0.4, -999.0
04-11-2023, 00:12:55,    158,    0.7,    4.6,   0.00,   0.00,  983.0,    0.5, -999.0
04-11-2023, 00:13:04,    158,    0.1,    4.6,   0.00,   0.00,  983.0,    0.5, -999.0
04-11-2023, 00:13:14,    158,    0.0,    4.6,   0.00,   0.00,  982.9,    0.2, -999.0
04-11-2023, 00:13:25,    158,    0.0,    4.5,   0.00,   0.00,  982.9,    0.8, -999.0
04-11-2023, 00:13:34,    157,    0.0,    4.6,   0.00,   0.00,  982.8,    0.3, -999.0
04-11-2023, 00:13:44,    158,    0.0,    4.6,   0.00,   0.00,  982.9,    0.3, -999.0
04-11-2023, 00:13:54,    158,    0.0,    4.6,   0.00,   0.00,  982.9,    0.2, -999.0
04-11-2023, 00:14:04,    158,    0.0,    4.5,   0.00,   0.00,  982.9,    0.4, -999.0
04-11-2023, 00:14:14,    158,    0.2,    4.6,   0.00,   0.00,  983.0,    0.4, -999.0
04-11-2023, 00:14:24,    158,    0.0,    4.6,   0.00,   0.00,  982.9,    0.4, -999.0
04-11-2023, 00:14:34,    157,    0.0,    4.6,   0.00,   0.00,  982.9,    0.3, -999.0
04-11-2023, 00:14:44,    158,    0.0,    4.5,   0.00,   0.00,  982.9,    0.5, -999.0
04-11-2023, 00:14:54,    158,    0.0,    4.6,   0.00,   0.00,  982.9,    0.5, -999.0
04-11-2023, 00:15:04,    157,    0.0,    4.6,   0.00,   0.00,  982.9,    0.3, -999.0
04-11-2023, 00:15:14,    157,    0.0,    4.5,   0.00,   0.00,  982.9,    0.6, -999.0
04-11-2023, 00:15:24,    162,    0.9,    4.6,   0.00,   0.00,  983.0,    0.5, -999.0
04-11-2023, 00:15:34,    158,    1.4,    4.6,   0.00,   0.00,  983.0,    0.5, -999.0
04-11-2023, 00:15:44,    157,    0.8,    4.6,   0.00,   0.00,  983.1,    0.5, -999.0
04-11-2023, 00:15:54,    158,    0.1,    4.6,   0.00,   0.00,  982.9,    0.5, -999.0
04-11-2023, 00:16:04,    158,    0.3,    4.6,   0.00,   0.00,  983.0,    0.5, -999.0
04-11-2023, 00:16:14,    157,    0.2,    4.6,   0.00,   0.00,  983.0,    0.6, -999.0
04-11-2023, 00:16:24,    157,    0.7,    4.7,   0.00,   0.00,  983.0,    0.5, -999.0
04-11-2023, 00:16:34,    157,    0.6,    4.6,   0.00,   0.00,  983.0,    0.5, -999.0
04-11-2023, 00:16:44,    157,    0.4,    4.7,   0.00,   0.00,  983.0,    0.6, -999.0
04-11-2023, 00:16:54,    157,    0.3,    4.7,   0.00,   0.00,  982.9,    0.5, -999.0
04-11-2023, 00:17:04,    157,    0.0,    4.6,   0.00,   0.00,  982.9,    0.3, -999.0
04-11-2023, 00:17:14,    157,    0.0,    4.6,   0.00,   0.00,  982.8,    0.6, -999.0
04-11-2023, 00:17:24,    157,    0.0,    4.6,   0.00,   0.00,  982.9,    0.4, -999.0
04-11-2023, 00:17:34,    157,    0.9,    4.7,   0.00,   0.00,  983.0,    0.5, -999.0
04-11-2023, 00:17:44,    163,    1.0,    4.7,   0.00,   0.00,  983.0,    0.7, -999.0
04-11-2023, 00:17:54,    164,    0.2,    4.6,   0.00,   0.00,  982.9,    0.5, -999.0
04-11-2023, 00:18:04,    164,    0.0,    4.5,   0.00,   0.00,  982.8,    0.5, -999.0
04-11-2023, 00:18:14,    165,    0.0,    4.4,   0.00,   0.00,  982.8,    0.5, -999.0
04-11-2023, 00:18:24,    165,    0.0,    4.6,   0.00,   0.00,  982.9,    0.3, -999.0
04-11-2023, 00:18:33,    163,    0.0,    4.5,   0.00,   0.00,  982.9,    0.6, -999.0
04-11-2023, 00:18:44,    164,    0.0,    4.5,   0.00,   0.00,  982.8,    0.4, -999.0
04-11-2023, 00:18:54,    164,    0.0,    4.5,   0.00,   0.00,  982.8,    0.4, -999.0
04-11-2023, 00:19:04,    164,    0.0,    4.5,   0.00,   0.00,  982.8,    0.5, -999.0
04-11-2023, 00:19:13,    164,    0.0,    4.5,   0.00,   0.00,  982.9,    0.3, -999.0
04-11-2023, 00:19:24,    164,    0.4,    4.6,   0.00,   0.00,  983.0,    0.5, -999.0
04-11-2023, 00:19:34,    164,    0.2,    4.6,   0.00,   0.00,  982.9,    0.4, -999.0
04-11-2023, 00:19:43,    164,    0.0,    4.4,   0.00,   0.00,  982.8,    0.4, -999.0
04-11-2023, 00:19:53,    164,    0.0,    4.4,   0.00,   0.00,  982.8,    0.4, -999.0
04-11-2023, 00:20:04,    164,    0.0,    4.5,   0.00,   0.00,  982.8,    0.5, -999.0
04-11-2023, 00:20:13,    165,    0.0,    4.4,   0.00,   0.00,  982.8,    0.6, -999.0
04-11-2023, 00:20:23,    163,    0.0,    4.4,   0.00,   0.00,  982.8,    0.3, -999.0
04-11-2023, 00:20:33,    165,    0.0,    4.4,   0.00,   0.00,  982.8,    0.3, -999.0
04-11-2023, 00:20:44,    164,    0.0,    4.4,   0.00,   0.00,  982.8,    0.5, -999.0
04-11-2023, 00:20:53,    164,    0.0,    4.4,   0.00,   0.00,  982.8,    0.4, -999.0
04-11-2023, 00:21:03,    164,    0.0,    4.4,   0.00,   0.00,  982.8,    0.4, -999.0
04-11-2023, 00:21:13,    164,    0.0,    4.4,   0.00,   0.00,  982.8,    0.4, -999.0
04-11-2023, 00:21:23,    164,    0.0,    4.5,   0.00,   0.00,  982.8,    0.4, -999.0
04-11-2023, 00:21:33,    165,    0.0,    4.4,   0.00,   0.00,  982.8,    0.6, -999.0
04-11-2023, 00:21:43,    164,    0.0,    4.4,   0.00,   0.00,  982.8,    0.6, -999.0
04-11-2023, 00:21:54,    164,    0.0,    4.4,   0.00,   0.00,  982.8,    0.5, -999.0
04-11-2023, 00:22:03,    164,    0.2,    4.5,   0.00,   0.00,  982.9,    0.4, -999.0
04-11-2023, 00:22:13,    164,    0.0,    4.5,   0.00,   0.00,  982.9,    0.3, -999.0
04-11-2023, 00:22:23,    164,    0.0,    4.5,   0.00,   0.00,  982.8,    0.3, -999.0
04-11-2023, 00:22:33,    164,    0.0,    4.4,   0.00,   0.00,  982.8,    0.7, -999.0
04-11-2023, 00:22:43,    164,    0.0,    4.5,   0.00,   0.00,  982.8,    0.4, -999.0
04-11-2023, 00:22:53,    164,    0.0,    4.5,   0.00,   0.00,  982.8,    0.4, -999.0
04-11-2023, 00:23:03,    164,    0.0,    4.5,   0.00,   0.00,  982.8,    0.5, -999.0
04-11-2023, 00:23:13,    163,    0.0,    4.4,   0.00,   0.00,  982.8,    0.4, -999.0
04-11-2023, 00:23:23,    164,    0.0,    4.5,   0.00,   0.00,  982.8,    0.5, -999.0
04-11-2023, 00:23:33,    164,    0.0,    4.5,   0.00,   0.00,  982.8,    0.5, -999.0
04-11-2023, 00:23:43,    164,    0.0,    4.5,   0.00,   0.00,  982.8,    0.7, -999.0
04-11-2023, 00:23:53,    163,    0.0,    4.5,   0.00,   0.00,  982.8,    0.4, -999.0
04-11-2023, 00:24:03,    163,    0.0,    4.4,   0.00,   0.00,  982.8,    0.4, -999.0
04-11-2023, 00:24:13,    164,    0.0,    4.4,   0.00,   0.00,  982.8,    0.3, -999.0
04-11-2023, 00:24:23,    164,    0.0,    4.4,   0.00,   0.00,  982.8,    0.4, -999.0
04-11-2023, 00:24:33,    164,    0.0,    4.4,   0.00,   0.00,  982.8,    0.5, -999.0
04-11-2023, 00:24:43,    164,    0.0,    4.4,   0.00,   0.00,  982.8,    0.4, -999.0
04-11-2023, 00:24:53,    162,    0.6,    4.4,   0.00,   0.00,  982.9,    0.3, -999.0
04-11-2023, 00:25:03,    162,    0.7,    4.5,   0.00,   0.00,  982.9,    0.7, -999.0
04-11-2023, 00:25:13,    162,    0.0,    4.5,   0.00,   0.00,  982.8,    0.3, -999.0
04-11-2023, 00:25:23,    163,    0.0,    4.4,   0.00,   0.00,  982.8,    0.3, -999.0
04-11-2023, 00:25:33,    162,    0.0,    4.5,   0.00,   0.00,  982.8,    0.3, -999.0
04-11-2023, 00:25:43,    162,    0.6,    4.5,   0.00,   0.00,  982.9,    0.4, -999.0
04-11-2023, 00:25:53,    162,    0.1,    4.5,   0.00,   0.00,  982.8,    0.5, -999.0
04-11-2023, 00:26:03,    162,    0.0,    4.4,   0.00,   0.00,  982.7,    0.4, -999.0
04-11-2023, 00:26:13,    162,    0.0,    4.5,   0.00,   0.00,  982.7,    0.3, -999.0
04-11-2023, 00:26:23,    162,    0.2,    4.5,   0.00,   0.00,  982.8,    0.5, -999.0
04-11-2023, 00:26:33,    162,    0.5,    4.6,   0.00,   0.00,  982.8,    0.4, -999.0
04-11-2023, 00:26:43,    161,    0.0,    4.5,   0.00,   0.00,  982.7,    0.4, -999.0
04-11-2023, 00:26:52,    161,    0.1,    4.6,   0.00,   0.00,  982.8,    0.5, -999.0
04-11-2023, 00:27:03,    162,    0.1,    4.4,   0.00,   0.00,  982.7,    0.6, -999.0
04-11-2023, 00:27:13,    162,    0.1,    4.5,   0.00,   0.00,  982.7,    0.6, -999.0
04-11-2023, 00:27:22,    161,    0.0,    4.5,   0.00,   0.00,  982.7,    0.4, -999.0
04-11-2023, 00:27:32,    141,    0.5,    4.5,   0.00,   0.00,  982.7,    0.5, -999.0
04-11-2023, 00:27:43,    147,    1.4,    4.6,   0.00,   0.00,  982.8,    0.5, -999.0
04-11-2023, 00:27:53,    147,    0.3,    4.5,   0.00,   0.00,  982.8,    0.5, -999.0
04-11-2023, 00:28:02,    147,    0.0,    4.4,   0.00,   0.00,  982.7,    0.6, -999.0
04-11-2023, 00:28:12,    147,    0.0,    4.4,   0.00,   0.00,  982.7,    0.2, -999.0
04-11-2023, 00:28:23,    146,    0.0,    4.5,   0.00,   0.00,  982.7,    0.4, -999.0
04-11-2023, 00:28:32,    146,    0.0,    4.4,   0.00,   0.00,  982.7,    0.4, -999.0
04-11-2023, 00:28:42,    147,    0.1,    4.4,   0.00,   0.00,  982.7,    0.5, -999.0
04-11-2023, 00:28:52,    147,    0.0,    4.4,   0.00,   0.00,  982.7,    0.5, -999.0
04-11-2023, 00:29:02,    147,    0.0,    4.4,   0.00,   0.00,  982.7,    0.5, -999.0
04-11-2023, 00:29:12,    146,    0.0,    4.3,   0.00,   0.00,  982.7,    0.3, -999.0
04-11-2023, 00:29:22,    147,    0.0,    4.4,   0.00,   0.00,  982.7,    0.7, -999.0
04-11-2023, 00:29:33,    147,    0.0,    4.4,   0.00,   0.00,  982.7,    0.7, -999.0
04-11-2023, 00:29:42,    147,    0.0,    4.4,   0.00,   0.00,  982.6,    0.2, -999.0
04-11-2023, 00:29:52,    147,    0.0,    4.3,   0.00,   0.00,  982.7,    0.5, -999.0
04-11-2023, 00:30:02,    146,    0.0,    4.4,   0.00,   0.00,  982.6,    0.4, -999.0
04-11-2023, 00:30:12,    146,    0.0,    4.4,   0.00,   0.00,  982.6,    0.3, -999.0
04-11-2023, 00:30:22,    147,    0.0,    4.3,   0.00,   0.00,  982.7,    0.5, -999.0
04-11-2023, 00:30:32,    146,    0.0,    4.4,   0.00,   0.00,  982.6,    0.3, -999.0
04-11-2023, 00:30:42,    148,    0.1,    4.4,   0.00,   0.00,  982.7,    0.3, -999.0
04-11-2023, 00:30:52,    148,    0.0,    4.3,   0.00,   0.00,  982.6,    0.4, -999.0
04-11-2023, 00:31:02,    148,    0.3,    4.4,   0.00,   0.00,  982.8,    0.6, -999.0
04-11-2023, 00:31:12,    149,    0.1,    4.4,   0.00,   0.00,  982.7,    0.3, -999.0
04-11-2023, 00:31:22,    151,    0.1,    4.4,   0.00,   0.00,  982.7,    0.6, -999.0
04-11-2023, 00:31:32,    151,    0.1,    4.4,   0.00,   0.00,  982.7,    0.5, -999.0
04-11-2023, 00:31:42,    169,    0.5,    4.5,   0.00,   0.00,  982.7,    0.5, -999.0
04-11-2023, 00:31:52,    171,    0.2,    4.4,   0.00,   0.00,  982.7,    0.7, -999.0
04-11-2023, 00:32:02,    170,    0.5,    4.5,   0.00,   0.00,  982.8,    0.6, -999.0
04-11-2023, 00:32:12,    169,    0.7,    4.3,   0.00,   0.00,  982.7,    0.4, -999.0
04-11-2023, 00:32:22,    169,    0.2,    4.4,   0.00,   0.00,  982.7,    0.3, -999.0
04-11-2023, 00:32:32,    169,    0.1,    4.4,   0.00,   0.00,  982.7,    0.4, -999.0
04-11-2023, 00:32:42,    170,    0.0,    4.4,   0.00,   0.00,  982.6,    0.5, -999.0
04-11-2023, 00:32:52,    170,    0.2,    4.4,   0.00,   0.00,  982.6,    0.5, -999.0
04-11-2023, 00:33:02,    170,    0.7,    4.5,   0.00,   0.00,  982.8,    0.6, -999.0
04-11-2023, 00:33:12,    169,    0.2,    4.5,   0.00,   0.00,  982.7,    0.5, -999.0
04-11-2023, 00:33:22,    169,    0.0,    4.4,   0.00,   0.00,  982.6,    0.5, -999.0
04-11-2023, 00:33:32,    169,    0.0,    4.4,   0.00,   0.00,  982.6,    0.4, -999.0
04-11-2023, 00:33:42,    170,    0.0,    4.4,   0.00,   0.00,  982.6,    0.4, -999.0
04-11-2023, 00:33:52,    146,    1.3,    4.4,   0.00,   0.00,  982.7,    0.8, -999.0
04-11-2023, 00:34:02,    147,    1.0,    4.4,   0.00,   0.00,  982.7,    0.3, -999.0
04-11-2023, 00:34:12,    146,    0.3,    4.4,   0.00,   0.00,  982.7,    0.5, -999.0
04-11-2023, 00:34:22,    175,    0.1,    4.4,   0.00,   0.00,  982.6,    0.3, -999.0
04-11-2023, 00:34:31,    175,    0.1,    4.3,   0.00,   0.00,  982.6,    0.4, -999.0
04-11-2023, 00:34:42,    169,    1.1,    4.4,   0.00,   0.00,  982.7,    0.5, -999.0
04-11-2023, 00:34:52,    166,    0.9,    4.4,   0.00,   0.00,  982.6,    0.4, -999.0
04-11-2023, 00:35:02,    166,    0.3,    4.3,   0.00,   0.00,  982.6,    0.5, -999.0
04-11-2023, 00:35:11,    157,    1.5,    4.3,   0.00,   0.00,  982.6,    0.5, -999.0
04-11-2023, 00:35:22,    155,    1.1,    4.4,   0.00,   0.00,  982.6,    0.6, -999.0
04-11-2023, 00:35:32,    155,    0.0,    4.3,   0.00,   0.00,  982.5,    0.6, -999.0
04-11-2023, 00:35:41,    155,    0.2,    4.3,   0.00,   0.00,  982.5,    0.4, -999.0
04-11-2023, 00:35:51,    155,    0.5,    4.4,   0.00,   0.00,  982.6,    0.4, -999.0
04-11-2023, 00:36:02,    155,    1.1,    4.3,   0.00,   0.00,  982.6,    0.6, -999.0
04-11-2023, 00:36:11,    155,    1.0,    4.4,   0.00,   0.00,  982.6,    0.4, -999.0
04-11-2023, 00:36:21,    154,    0.0,    4.3,   0.00,   0.00,  982.5,    0.4, -999.0
04-11-2023, 00:36:32,    155,    0.5,    4.3,   0.00,   0.00,  982.5,    0.5, -999.0
04-11-2023, 00:36:42,    147,    1.4,    4.4,   0.00,   0.00,  982.6,    0.5, -999.0
04-11-2023, 00:36:51,    146,    1.2,    4.4,   0.00,   0.00,  982.6,    0.5, -999.0
04-11-2023, 00:37:01,    146,    0.5,    4.4,   0.00,   0.00,  982.6,    0.7, -999.0
04-11-2023, 00:37:12,    146,    0.9,    4.4,   0.00,   0.00,  982.6,    0.5, -999.0
04-11-2023, 00:37:21,    147,    1.7,    4.4,   0.00,   0.00,  982.5,    0.4, -999.0
04-11-2023, 00:37:31,    148,    1.8,    4.4,   0.00,   0.00,  982.6,    0.3, -999.0
04-11-2023, 00:37:41,    154,    1.4,    4.4,   0.00,   0.00,  982.5,    0.4, -999.0
04-11-2023, 00:37:51,    154,    0.1,    4.3,   0.00,   0.00,  982.5,    0.4, -999.0
04-11-2023, 00:38:01,    154,    0.0,    4.3,   0.00,   0.00,  982.5,    0.5, -999.0
04-11-2023, 00:38:11,    154,    0.4,    4.3,   0.00,   0.00,  982.5,    0.6, -999.0
04-11-2023, 00:38:21,    154,    0.4,    4.3,   0.00,   0.00,  982.5,    0.6, -999.0
04-11-2023, 00:38:31,    158,    0.2,    4.3,   0.00,   0.00,  982.4,    0.7, -999.0
04-11-2023, 00:38:41,    158,    0.0,    4.3,   0.00,   0.00,  982.3,    0.5, -999.0
04-11-2023, 00:38:51,    159,    0.0,    4.2,   0.00,   0.00,  982.4,    0.4, -999.0
04-11-2023, 00:39:01,    159,    0.2,    4.2,   0.00,   0.00,  982.4,    0.4, -999.0
04-11-2023, 00:39:11,    187,    2.2,    4.4,   0.00,   0.00,  982.5,    0.6, -999.0
04-11-2023, 00:39:21,    173,    1.4,    4.4,   0.00,   0.00,  982.5,    0.4, -999.0
04-11-2023, 00:39:31,    173,    0.9,    4.3,   0.00,   0.00,  982.5,    0.6, -999.0
04-11-2023, 00:39:41,    172,    0.1,    4.3,   0.00,   0.00,  982.4,    0.4, -999.0
04-11-2023, 00:39:51,    172,    0.0,    4.1,   0.00,   0.00,  982.4,    0.4, -999.0
04-11-2023, 00:40:01,    173,    0.3,    4.2,   0.00,   0.00,  982.5,    0.4, -999.0
04-11-2023, 00:40:11,    172,    0.3,    4.3,   0.00,   0.00,  982.5,    0.5, -999.0
04-11-2023, 00:40:21,    172,    0.4,    4.2,   0.00,   0.00,  982.5,    0.3, -999.0
04-11-2023, 00:40:31,    180,    1.5,    4.3,   0.00,   0.00,  982.5,    0.3, -999.0
04-11-2023, 00:40:41,    178,    1.7,    4.3,   0.00,   0.00,  982.5,    0.4, -999.0
04-11-2023, 00:40:51,    178,    0.2,    4.3,   0.00,   0.00,  982.5,    0.5, -999.0
04-11-2023, 00:41:01,    177,    0.3,    4.2,   0.00,   0.00,  982.5,    0.4, -999.0
04-11-2023, 00:41:11,    174,    0.3,    4.3,   0.00,   0.00,  982.5,    0.3, -999.0
04-11-2023, 00:41:21,    174,    0.0,    4.2,   0.00,   0.00,  982.4,    0.3, -999.0
04-11-2023, 00:41:31,    175,    0.0,    4.2,   0.00,   0.00,  982.4,    0.3, -999.0
04-11-2023, 00:41:41,    174,    0.0,    4.2,   0.00,   0.00,  982.4,    0.5, -999.0
04-11-2023, 00:41:51,    175,    0.0,    4.2,   0.00,   0.00,  982.4,    0.6, -999.0
04-11-2023, 00:42:01,    174,    0.2,    4.2,   0.00,   0.00,  982.5,    0.4, -999.0
04-11-2023, 00:42:10,    176,    0.8,    4.2,   0.00,   0.00,  982.5,    0.5, -999.0
04-11-2023, 00:42:21,    176,    0.3,    4.2,   0.00,   0.00,  982.5,    0.5, -999.0
04-11-2023, 00:42:31,    219,    1.9,    4.2,   0.00,   0.00,  982.5,    0.4, -999.0
04-11-2023, 00:42:41,    218,    0.4,    4.2,   0.00,   0.00,  982.4,    0.5, -999.0
04-11-2023, 00:42:50,    178,    0.2,    4.1,   0.00,   0.00,  982.4,    0.4, -999.0
04-11-2023, 00:43:01,    140,    1.5,    4.2,   0.00,   0.00,  982.5,    0.5, -999.0
04-11-2023, 00:43:11,    153,    1.9,    4.2,   0.00,   0.00,  982.5,    0.5, -999.0
04-11-2023, 00:43:20,    143,    2.6,    4.2,   0.00,   0.00,  982.5,    0.5, -999.0
04-11-2023, 00:43:31,    180,    1.5,    4.2,   0.00,   0.00,  982.5,    0.6, -999.0
04-11-2023, 00:43:41,    177,    0.0,    4.1,   0.00,   0.00,  982.4,    0.4, -999.0
04-11-2023, 00:43:50,    178,    0.2,    4.1,   0.00,   0.00,  982.5,    0.4, -999.0
04-11-2023, 00:44:00,    169,    0.2,    4.1,   0.00,   0.00,  982.4,    0.4, -999.0
04-11-2023, 00:44:11,    168,    0.5,    4.2,   0.00,   0.00,  982.5,    0.6, -999.0
04-11-2023, 00:44:21,    159,    1.3,    4.2,   0.00,   0.00,  982.5,    0.2, -999.0
04-11-2023, 00:44:30,    159,    0.8,    4.2,   0.00,   0.00,  982.5,    0.8, -999.0
04-11-2023, 00:44:40,    143,    0.5,    4.2,   0.00,   0.00,  982.5,    0.3, -999.0
04-11-2023, 00:44:51,    143,    1.5,    4.2,   0.00,   0.00,  982.5,    0.5, -999.0
04-11-2023, 00:45:00,    146,    0.3,    4.2,   0.00,   0.00,  982.5,    0.4, -999.0
04-11-2023, 00:45:10,    147,    0.0,    4.2,   0.00,   0.00,  982.4,    0.4, -999.0
04-11-2023, 00:45:20,    146,    0.2,    4.1,   0.00,   0.00,  982.5,    0.4, -999.0
04-11-2023, 00:45:30,    161,    0.0,    4.1,   0.00,   0.00,  982.4,    0.4, -999.0
04-11-2023, 00:45:40,    162,    0.5,    4.2,   0.00,   0.00,  982.4,    0.5, -999.0
04-11-2023, 00:45:50,    163,    0.1,    4.1,   0.00,   0.00,  982.4,    0.5, -999.0
04-11-2023, 00:46:00,    167,    0.5,    4.2,   0.00,   0.00,  982.5,    0.6, -999.0
04-11-2023, 00:46:10,    167,    0.2,    4.1,   0.00,   0.00,  982.4,    0.4, -999.0
04-11-2023, 00:46:20,    166,    0.1,    4.1,   0.00,   0.00,  982.4,    0.6, -999.0
04-11-2023, 00:46:30,    191,    1.0,    4.2,   0.00,   0.00,  982.5,    0.5, -999.0
04-11-2023, 00:46:40,    197,    0.9,    4.1,   0.00,   0.00,  982.5,    0.7, -999.0
04-11-2023, 00:46:50,    156,    1.7,    4.1,   0.00,   0.00,  982.5,    0.5, -999.0